Home > Time Zones > World Clock > Weather > Yemen > Aden > Past weeks

Flag for Yemen Weather past 2 weeks in Aden, Yemen

Now
81 °F

Clear.


Feels Like: 81 °F
Forecast: 79 / 90 °F
Wind: No wind

Location: Aden

Current Time: Oct 25, 2014 at 2:33:51 AM

Latest Report: Oct 25, 2014 at 2:00 AM


Visibility: 10 mi

Pressure: 29.86 "Hg

Humidity: 42%

Dew point: 55 °F

Location of AdenLocation

Historic Weather in Aden — Graph

°F

Aden temperature yesterday

Maximum temperature yesterday: 93 °F (at 12:00 PM)
Minimum temperature yesterday: 79 °F (at 4:00 AM)
Average temperature yesterday: 85 °F

Past Weeks' High & Low Weather Summary

 TemperatureHumidityPressure
High93 °F (Oct 10, 12:00 PM)58% (Oct 10, 6:00 AM)30.01 "Hg (Oct 10, 6:00 AM)
Low77 °F (Oct 19, 6:00 AM)11% (Oct 24, 12:00 PM)29.77 "Hg (Oct 10, 4:00 PM)
Average86 °F40%29.88 "Hg
* Reported Oct 10 1:00 AM — Oct 25 1:00 AM, Aden, Weather by CustomWeather, © 2014

Note: Actual official high and low records may vary slightly from our data, if they occured in-between our weather recording intervals... More about our weather records

Advertising

Aden weather history for previous 24 hours

 ConditionsComfort  
Time TempWeatherWind HumidityBarometerVisibility
1:00 AM
Oct 25
81 °FClear.No wind42%29.86 "Hg10 mi
12:00 AM82 °FClear.No wind42%29.89 "Hg10 mi
11:00 PM
Oct 24
82 °FClear.3 mph40%29.89 "Hg10 mi
10:00 PM82 °FClear.No wind40%29.92 "Hg10 mi
9:00 PM84 °FClear.6 mph35%29.89 "Hg10 mi
8:00 PM84 °FClear.6 mph33%29.89 "Hg10 mi
7:00 PM86 °FClear.7 mph52%29.83 "Hg10 mi
6:00 PM88 °FClear.7 mph25%29.83 "Hg10 mi
5:00 PM88 °FSunny.12 mph33%29.77 "Hg10 mi
4:00 PM90 °FSunny.17 mph29%29.83 "Hg10 mi
3:00 PM90 °FSunny.16 mph31%29.83 "Hg10 mi
2:00 PM91 °FSunny.13 mph24%29.83 "Hg10 mi
1:00 PM93 °FSunny.9 mph26%29.86 "Hg10 mi
12:00 PM93 °FPassing clouds.5 mph11%29.89 "HgN/A
11:00 AM90 °FPassing clouds.6 mph20%29.92 "HgN/A
10:00 AM88 °FPassing clouds.5 mph35%29.95 "HgN/A
9:00 AM84 °FPassing clouds.2 mph45%29.95 "HgN/A
8:00 AM82 °FPassing clouds.No wind37%29.95 "HgN/A
7:00 AM81 °FSunny.No wind51%29.92 "Hg10 mi
6:00 AM79 °FSunny.2 mph54%29.92 "Hg10 mi
5:00 AM79 °FClear.2 mph54%29.89 "Hg10 mi
4:00 AM79 °FClear.3 mph54%29.89 "Hg10 mi
3:00 AM81 °FWarm.3 mph51%29.89 "HgN/A
2:00 AM81 °FPassing clouds.1 mph48%29.92 "HgN/A
Weather by CustomWeather, © 2014

See weather overviewHow to use our weather pages